STARLINK-32955, 63117

Orbit data source: Space-Track

STARLINK-32955, 63117 is a payload satellite owned by SpaceX/Seattle (US) in LEO that was launched on Thu, 27 Feb 2025 UTC via an FALCON 9 launch vehicle from the Air Force Eastern Test Range (AFETR). Payload-class satellites include a variety of spacecraft equipped with specific instruments for various scientific and technological missions. These include communications satellites like Starlink; space stations such as the ISS; scientific satellites like the Hubble; Earth observation satellites from companies like Planet Labs, Umbra, and HawkEye 360; GPS; miniature CubeSats for education and research; and military/defense satellites.

Loading next visibility...
Identifier
63117, 2025-039P
Orbit
LEO
Last TLE update
13 hours ago
Origin
Manufacturer
SpaceX/Seattle
Mission
Operational Commercial Communications
Bus & Motor
STARLINK V2M, Unknown motor
Mass
730 kg wet, ~700 kg dry
Launch date (UTC)
2025-02-27 (2 months ago)
Launch vehicle
FALCON 9
Launch site
Air Force Eastern Test Range (AFETR)
Object type
Payload
Rocket body
Debris
Shape & HBR
Box + 2 Pan, 29 m
Radar Cross Section
33.884 m², Large (>1 m²)

Expand to show TLE details & history

TLE from 13 hours ago
0 STARLINK-32955
1 63117U 25039P   25128.75207930  .00001922  00000-0  79365-4 0  9996
2 63117  42.9970 294.6405 0001287 272.9442  87.1262 15.27576578 12157
Epoch: 2025-05-08T18:02Z
Definitive object data (Epoch: 2025-05-08T18:02:59.651Z)
Latitude
-0.00004°
Longitude
157.07384°
Altitude
482.79 km
Speed
7.626 km/s
True Right ascension
19h 38m 33s
True Declination
0° 00' 00"
Sunlit
Object was in daylight at TLE epoch
Visualization TLE readout
Latitude
42.69474°
Longitude
-126.22615°
Altitude
486.958 km
Speed
7.627 km/s
Apparent Right ascension
01h 54m 54s
Apparent Declination
3° 23' 31"
Sunlit
Object is in daylight
Visualization observer readout
Local Sidereal Time
15:06:42
Azimuth
25.17° NE
Elevation
-43.662°
Doppler factor
1
Orbital elements
Apogee altitude
485.888 km
Perigee altitude
484.122 km
Semi-major axis
6,863.142 km
Eccentricity
0.0001287
Inclination
42.997°
RAAN
294.6405°
Arg. of periapsis
272.9442°
True anomaly
87.14093°
Mean anomaly
87.1262°
Eccentric anomaly
87.13356°
Mean motion
3.81732 °/min
BSTAR
0.000079365
Orbital period
94.31 mins
Loading maneuver chart data...
Loading SW <> Apogee altitude chart data...
Loading historical data...
Loading historical data...
Loading historical data...
Loading historical data...
Loading historical data...
Loading historical data...
Loading historical data...

STARLINK-32955 Visibility forecast

Observer location: undefined°, undefined°

Span
Click to sort rows by Start time (UTC) header in descending order
Start Az.
Max El. time (UTC)
Max El. Az.
Max El.
End time (UTC)
End Az.
5 mins2025-05-09 14:41:47.614Z221.053° SW2025-05-09 14:43:47.614Z131.695° SE38.778°2025-05-09 14:46:47.614Z77.785° E
6 mins2025-05-09 16:19:47.614Z276.317° WNW2025-05-09 16:22:47.614Z17.079° NNE39.068°2025-05-09 16:25:47.614Z70.731° E
5 mins2025-05-09 17:59:47.614Z297.756° NW2025-05-09 18:01:47.614Z20.219° NNE40.962°2025-05-09 18:04:47.614Z89.538° E
5 mins2025-05-09 19:38:47.614Z268.076° W2025-05-09 19:40:47.614Z196.639° SSW35.995°2025-05-09 19:43:47.614Z134.59° SE
|